Trenton, NJ

12:16 AM EDT on July 26, 2017 (GMT -0400)
Trenton Mercer

Weather History for KTTN - April, 2014

Change the Weather History Date:

Thursday, April 24, 2014

  Actual Average Record
Temperature  
Mean Temperature 51 °F 54 °F  
Max Temperature 62 °F 64 °F 84 °F (2001)
Min Temperature 40 °F 44 °F 29 °F (1930)
Degree Days  
Heating Degree Days 14 11  
Month to date heating degree days 330 358  
Since 1 July heating degree days 5289 4904  
Cooling Degree Days 0 0  
Month to date cooling degree days 6 0  
Year to date cooling degree days 6 0  
Growing Degree Days 1 (Base 50)    
Moisture  
Dew Point 16 °F    
Average Humidity 32    
Maximum Humidity 49    
Minimum Humidity 14    
Precipitation  
Precipitation 0.00 in 0.10 in 1.50 in (1987)
Month to date precipitation 1.40 2.97  
Year to date precipitation 12.39 12.58  
Sea Level Pressure  
Sea Level Pressure 29.94 in    
Wind  
Wind Speed 13 mph (NW)    
Max Wind Speed 26 mph    
Max Gust Speed 38 mph    
Visibility 10 miles    
Events      
T = Trace of Precipitation, MM = Missing Value Source: NWS Daily Summary

Daily Weather History Graph

Daily Weather History Graph

Search for Another Location

Airport or City:

Trip Planner

Search our weather history database for the weather conditions in past years. The results will help you decide how hot, cold, wet, or windy it might be!

Date:

Astronomy

Apr. 24, 2014 Rise Set
Actual Time 6:08 AM EDT 7:47 PM EDT
Civil Twilight 5:39 AM EDT 8:16 PM EDT
Nautical Twilight 5:04 AM EDT 8:51 PM EDT
Astronomical Twilight 4:27 AM EDT 9:28 PM EDT
Moon 3:18 AM EDT (4/24) 2:59 PM EDT (4/24)
Length of Visible Light 14h 37m
Length of Day
13h 39m
Waning Crescent, 24% of the Moon is Illuminated
Apr 24
Waning Crescent
Apr 29
New
May 6
First Quarter
May 14
Full
May 21
Last Quarter

Hourly Weather History & Observations

Time (EDT) Temp. Windchill Dew Point Humidity Pressure Visibility Wind Dir Wind Speed Gust Speed Precip Events Conditions
12:53 AM 44.1 °F 40.1 °F 24.1 °F 45% 29.88 in 10.0 mi NW 6.9 mph 24.2 mph N/A   Clear
1:53 AM 43.0 °F 37.7 °F 24.1 °F 47% 29.87 in 10.0 mi NW 9.2 mph 18.4 mph N/A   Clear
2:53 AM 43.0 °F 36.8 °F 25.0 °F 49% 29.86 in 10.0 mi NW 11.5 mph 20.7 mph N/A   Clear
3:53 AM 42.1 °F 36.1 °F 24.1 °F 49% 29.88 in 10.0 mi NNW 10.4 mph 19.6 mph N/A   Clear
4:53 AM 42.1 °F 36.1 °F 23.0 °F 47% 29.89 in 10.0 mi WNW 10.4 mph 17.3 mph N/A   Clear
5:53 AM 41.0 °F 35.8 °F 21.0 °F 45% 29.91 in 10.0 mi WNW 8.1 mph - N/A   Clear
6:53 AM 42.1 °F 35.2 °F 18.0 °F 38% 29.95 in 10.0 mi NW 12.7 mph 20.7 mph N/A   Clear
7:53 AM 44.1 °F 36.5 °F 18.0 °F 35% 29.96 in 10.0 mi NW 17.3 mph 25.3 mph N/A   Clear
8:53 AM 46.0 °F 40.6 °F 17.1 °F 31% 29.98 in 10.0 mi NW 11.5 mph 26.5 mph N/A   Clear
9:53 AM 48.9 °F - 17.1 °F 28% 29.98 in 10.0 mi NNW 18.4 mph 28.8 mph N/A   Clear
10:53 AM 52.0 °F - 16.0 °F 24% 29.98 in 10.0 mi WNW 18.4 mph 29.9 mph N/A   Clear
11:53 AM 54.0 °F - 15.1 °F 22% 29.98 in 10.0 mi NW 20.7 mph 31.1 mph N/A   Clear
12:53 PM 55.0 °F - 15.1 °F 21% 29.95 in 10.0 mi NW 20.7 mph 35.7 mph N/A   Clear
1:53 PM 57.0 °F - 14.0 °F 18% 29.93 in 10.0 mi WNW 24.2 mph 35.7 mph N/A   Clear
2:53 PM 61.0 °F - 12.9 °F 15% 29.92 in 10.0 mi NNW 21.9 mph 31.1 mph N/A   Clear
3:53 PM 61.0 °F - 10.9 °F 14% 29.91 in 10.0 mi NW 18.4 mph 32.2 mph N/A   Clear
4:53 PM 61.0 °F - 12.9 °F 15% 29.91 in 10.0 mi NNW 10.4 mph 25.3 mph N/A   Clear
5:53 PM 60.1 °F - 10.9 °F 14% 29.92 in 10.0 mi NNW 17.3 mph 26.5 mph N/A   Clear
6:53 PM 59.0 °F - 12.0 °F 16% 29.94 in 10.0 mi NNW 12.7 mph 20.7 mph N/A   Clear
7:53 PM 55.9 °F - 12.0 °F 18% 29.96 in 10.0 mi NNW 11.5 mph 18.4 mph N/A   Clear
8:53 PM 53.1 °F - 12.0 °F 20% 29.99 in 10.0 mi NW 6.9 mph - N/A   Clear
9:53 PM 53.1 °F - 10.9 °F 19% 30.00 in 10.0 mi NNW 6.9 mph - N/A   Clear
10:53 PM 48.9 °F - 12.9 °F 24% 30.00 in 10.0 mi Calm Calm - N/A   Clear
11:53 PM 48.0 °F - 12.9 °F 24% 30.02 in 10.0 mi NNE 5.8 mph - N/A   Clear